sat.trackr.live / text

‹ back to catalog

STARLINK-33905

NORAD 63881 · 2025-094T

PAYLOAD ACTIVE UNKNOWN

§ Identity

Operator
Country
US
Launch date
2025-05-10
Launch site
AFWTR
Launch vehicle
Mass (kg)
RCS (m²)

Purposes: comms

External: N2YO · Heavens-Above · Gunter

§ Orbital elements

Epoch: 2026-05-25T02:34:49.945728Z

Period
96.11 min
Inclination
70.0023°
Eccentricity
0.0002835
Mean motion
14.98333322 rev/d
Perigee alt
570.1 km
Apogee alt
574.0 km
Semi-major
6,950.2 km
B*
2.0206e-4
RAAN
41.6310°
Arg perigee
269.3338°
Mean anomaly
90.7496°
Rev number
5,865

§ Raw data

STARLINK-339051 63881U 25094T   26145.10752252  .00002319  00000+0  20206-3 0  99952 63881  70.0023  41.6310 0002835 269.3338  90.7496 14.98333322 58654

JSON: /api/v1/satellites/63881 · /tle

For live sub-satellite position, see the globe view (requires WebGL).

§ Visibility from observer

Set your observer location to see the next 7 days of passes ≥ 10°. The values pass through the URL so the page stays shareable.

No JS? Fill the form by hand. The geolocation button needs JavaScript.